Time,TemperatureF,DewpointF,PressureIn,WindDirection,WindDirectionDegrees,WindSpeedMPH,WindSpeedGustMPH,Humidity,HourlyPrecipIn,Conditions,Clouds,dailyrainin,SoftwareType,DateUTC
2013-03-10 00:00:00,65.0,54.6,30.11,East,90,0.0,3.0,69,0.00,,---,0.00,VWS V14.01,2013-03-10 05:00:00,
2013-03-10 00:05:00,64.8,54.0,30.10,East,90,0.0,1.0,68,0.00,,---,0.00,VWS V14.01,2013-03-10 05:05:00,
2013-03-10 00:10:00,64.7,53.9,30.10,East,90,0.0,1.0,68,0.00,,---,0.00,VWS V14.01,2013-03-10 05:10:00,
2013-03-10 00:15:00,64.8,54.0,30.10,ENE,76,0.0,3.0,68,0.00,,---,0.00,VWS V14.01,2013-03-10 05:15:00,
2013-03-10 00:20:00,65.0,53.8,30.09,ENE,76,0.0,3.0,67,0.00,,---,0.00,VWS V14.01,2013-03-10 05:20:00,
2013-03-10 00:25:00,65.1,54.3,30.09,ENE,65,0.0,3.0,68,0.00,,---,0.00,VWS V14.01,2013-03-10 05:25:00,
2013-03-10 00:30:00,65.1,53.9,30.10,ENE,65,0.0,0.0,67,0.00,,---,0.00,VWS V14.01,2013-03-10 05:30:00,
2013-03-10 00:35:00,65.2,54.0,30.09,ENE,65,0.0,1.0,67,0.00,,---,0.00,VWS V14.01,2013-03-10 05:35:00,
2013-03-10 00:40:00,65.2,54.4,30.09,ENE,65,0.0,1.0,68,0.00,,---,0.00,VWS V14.01,2013-03-10 05:40:00,
2013-03-10 00:45:00,65.1,54.3,30.08,ENE,65,0.0,2.0,68,0.00,,---,0.00,VWS V14.01,2013-03-10 05:45:00,
2013-03-10 00:50:00,65.1,54.3,30.08,ENE,65,0.0,2.0,68,0.00,,---,0.00,VWS V14.01,2013-03-10 05:50:00,
2013-03-10 00:55:00,65.0,54.6,30.08,ENE,65,0.0,2.0,69,0.00,,---,0.00,VWS V14.01,2013-03-10 05:55:00,
2013-03-10 00:59:00,64.9,54.5,30.06,East,90,0.0,2.0,69,0.00,,---,0.00,VWS V14.01,2013-03-10 05:59:00,
2013-03-10 01:00:00,64.9,54.5,30.08,ENE,65,0.0,0.0,69,0.00,,---,0.00,VWS V14.01,2013-03-10 06:00:00,
2013-03-10 01:05:00,64.7,54.3,30.09,ENE,65,0.0,1.0,69,0.00,,---,0.00,VWS V14.01,2013-03-10 06:05:00,
2013-03-10 01:10:00,64.7,54.3,30.09,East,92,0.0,2.0,69,0.00,,---,0.00,VWS V14.01,2013-03-10 06:10:00,
2013-03-10 01:15:00,64.9,54.9,30.08,East,94,0.0,3.0,70,0.00,,---,0.00,VWS V14.01,2013-03-10 06:15:00,
2013-03-10 01:20:00,65.1,54.7,30.08,ESE,119,0.0,3.0,69,0.00,,---,0.00,VWS V14.01,2013-03-10 06:20:00,
2013-03-10 01:25:00,65.2,55.2,30.07,East,94,1.0,4.0,70,0.00,,---,0.00,VWS V14.01,2013-03-10 06:25:00,
2013-03-10 01:30:00,65.4,55.4,30.06,ENE,71,0.0,0.0,70,0.00,,---,0.00,VWS V14.01,2013-03-10 06:30:00,
2013-03-10 01:35:00,65.4,55.4,30.06,ENE,69,0.0,2.0,70,0.00,,---,0.00,VWS V14.01,2013-03-10 06:35:00,
2013-03-10 01:40:00,65.4,55.4,30.07,ENE,69,0.0,2.0,70,0.00,,---,0.00,VWS V14.01,2013-03-10 06:40:00,
2013-03-10 01:45:00,65.3,55.3,30.07,ENE,69,0.0,2.0,70,0.00,,---,0.00,VWS V14.01,2013-03-10 06:45:00,
2013-03-10 01:50:00,65.1,54.7,30.07,ESE,107,1.0,2.0,69,0.00,,---,0.00,VWS V14.01,2013-03-10 06:50:00,
2013-03-10 01:55:00,65.0,54.6,30.06,East,90,0.0,2.0,69,0.00,,---,0.00,VWS V14.01,2013-03-10 06:55:00,
2013-03-10 03:00:00,64.9,54.5,30.06,East,90,0.0,0.0,69,0.00,,---,0.00,VWS V14.01,2013-03-10 07:00:00,
2013-03-10 03:05:00,64.7,54.3,30.05,East,90,0.0,1.0,69,0.00,,---,0.00,VWS V14.01,2013-03-10 07:05:00,
2013-03-10 03:10:00,64.4,54.4,30.04,East,90,0.0,1.0,70,0.00,,---,0.00,VWS V14.01,2013-03-10 07:10:00,
2013-03-10 03:15:00,64.0,54.0,30.04,NE,42,0.0,2.0,70,0.00,,---,0.00,VWS V14.01,2013-03-10 07:15:00,
2013-03-10 03:20:00,63.7,54.1,30.04,NE,51,0.0,2.0,71,0.00,,---,0.00,VWS V14.01,2013-03-10 07:20:00,
2013-03-10 03:25:00,63.7,54.1,30.04,NE,51,0.0,2.0,71,0.00,,---,0.00,VWS V14.01,2013-03-10 07:25:00,
2013-03-10 03:30:00,63.7,54.1,30.04,NE,51,0.0,0.0,71,0.00,,---,0.00,VWS V14.01,2013-03-10 07:30:00,
2013-03-10 03:35:00,63.6,54.0,30.04,NE,51,0.0,0.0,71,0.00,,---,0.00,VWS V14.01,2013-03-10 07:35:00,
2013-03-10 03:40:00,63.7,54.1,30.04,NE,51,0.0,0.0,71,0.00,,---,0.00,VWS V14.01,2013-03-10 07:40:00,
2013-03-10 03:45:00,63.6,54.4,30.05,NE,51,0.0,0.0,72,0.00,,---,0.00,VWS V14.01,2013-03-10 07:45:00,
2013-03-10 03:50:00,63.5,54.3,30.05,NE,51,0.0,0.0,72,0.00,,---,0.00,VWS V14.01,2013-03-10 07:50:00,
2013-03-10 03:55:00,63.3,54.5,30.05,NE,51,0.0,0.0,73,0.00,,---,0.00,VWS V14.01,2013-03-10 07:55:00,
2013-03-10 04:00:00,63.2,54.8,30.05,NE,51,0.0,0.0,74,0.00,,---,0.00,VWS V14.01,2013-03-10 08:00:00,
2013-03-10 04:05:00,63.2,54.8,30.04,NE,51,0.0,1.0,74,0.00,,---,0.00,VWS V14.01,2013-03-10 08:05:00,
2013-03-10 04:10:00,63.6,55.2,30.04,NE,51,0.0,1.0,74,0.00,,---,0.00,VWS V14.01,2013-03-10 08:10:00,
2013-03-10 04:15:00,64.0,55.2,30.04,East,86,0.0,3.0,73,0.00,,---,0.00,VWS V14.01,2013-03-10 08:15:00,
2013-03-10 04:20:00,64.3,55.1,30.03,ESE,109,0.0,3.0,72,0.00,,---,0.00,VWS V14.01,2013-03-10 08:20:00,
2013-03-10 04:25:00,64.5,54.5,30.03,ESE,113,0.0,3.0,70,0.00,,---,0.00,VWS V14.01,2013-03-10 08:25:00,
2013-03-10 04:30:00,64.6,54.6,30.03,NE,55,1.0,2.0,70,0.00,,---,0.00,VWS V14.01,2013-03-10 08:30:00,
2013-03-10 04:35:00,64.5,54.1,30.02,ENE,60,0.0,3.0,69,0.00,,---,0.00,VWS V14.01,2013-03-10 08:35:00,
2013-03-10 04:40:00,64.4,54.0,30.02,SE,128,0.0,3.0,69,0.00,,---,0.00,VWS V14.01,2013-03-10 08:40:00,
2013-03-10 04:45:00,64.3,53.9,30.02,ESE,119,0.0,3.0,69,0.00,,---,0.00,VWS V14.01,2013-03-10 08:45:00,
2013-03-10 04:50:00,64.2,53.8,30.02,ESE,109,0.0,3.0,69,0.00,,---,0.00,VWS V14.01,2013-03-10 08:50:00,
2013-03-10 04:55:00,64.2,53.8,30.01,ENE,68,0.0,3.0,69,0.00,,---,0.00,VWS V14.01,2013-03-10 08:55:00,
2013-03-10 05:00:00,64.1,54.1,30.02,ENE,66,1.0,2.0,70,0.00,,---,0.00,VWS V14.01,2013-03-10 09:00:00,
2013-03-10 05:05:00,64.4,54.4,30.04,East,96,0.0,2.0,70,0.00,,---,0.00,VWS V14.01,2013-03-10 09:05:00,
2013-03-10 05:10:00,64.5,54.5,30.05,ENE,74,1.0,2.0,70,0.00,,---,0.00,VWS V14.01,2013-03-10 09:10:00,
2013-03-10 05:15:00,64.7,54.3,30.06,ENE,74,1.0,2.0,69,0.00,,---,0.00,VWS V14.01,2013-03-10 09:15:00,
2013-03-10 05:20:00,64.7,54.3,30.06,ENE,73,0.0,2.0,69,0.00,,---,0.00,VWS V14.01,2013-03-10 09:20:00,
2013-03-10 05:25:00,64.6,54.2,30.05,ENE,73,0.0,2.0,69,0.00,,---,0.00,VWS V14.01,2013-03-10 09:25:00,
2013-03-10 05:30:00,64.4,53.6,30.04,East,88,0.0,1.0,68,0.00,,---,0.00,VWS V14.01,2013-03-10 09:30:00,
2013-03-10 05:35:00,64.4,53.2,30.04,ESE,109,0.0,3.0,67,0.00,,---,0.00,VWS V14.01,2013-03-10 09:35:00,
2013-03-10 05:40:00,64.4,53.2,30.04,East,100,0.0,3.0,67,0.00,,---,0.00,VWS V14.01,2013-03-10 09:40:00,
2013-03-10 05:45:00,64.4,53.2,30.05,East,100,0.0,3.0,67,0.00,,---,0.00,VWS V14.01,2013-03-10 09:45:00,
2013-03-10 05:50:00,64.4,53.2,30.05,East,100,0.0,3.0,67,0.00,,---,0.00,VWS V14.01,2013-03-10 09:50:00,
2013-03-10 05:55:00,64.3,53.1,30.05,East,100,0.0,3.0,67,0.00,,---,0.00,VWS V14.01,2013-03-10 09:55:00,
2013-03-10 06:00:00,64.1,53.3,30.05,East,100,0.0,0.0,68,0.00,,---,0.00,VWS V14.01,2013-03-10 10:00:00,
2013-03-10 06:05:00,63.8,53.5,30.05,East,100,0.0,0.0,69,0.00,,---,0.00,VWS V14.01,2013-03-10 10:05:00,
2013-03-10 06:10:00,63.3,53.0,30.05,East,100,0.0,0.0,69,0.00,,---,0.00,VWS V14.01,2013-03-10 10:10:00,
2013-03-10 06:15:00,62.8,52.9,30.05,East,100,0.0,0.0,70,0.00,,---,0.00,VWS V14.01,2013-03-10 10:15:00,
2013-03-10 06:20:00,62.4,52.9,30.05,East,100,0.0,0.0,71,0.00,,---,0.00,VWS V14.01,2013-03-10 10:20:00,
2013-03-10 06:25:00,62.0,52.9,30.04,East,100,0.0,0.0,72,0.00,,---,0.00,VWS V14.01,2013-03-10 10:25:00,
2013-03-10 06:30:00,61.7,53.0,30.04,East,100,0.0,0.0,73,0.00,,---,0.00,VWS V14.01,2013-03-10 10:30:00,
2013-03-10 06:35:00,61.6,53.2,30.04,East,100,0.0,1.0,74,0.00,,---,0.00,VWS V14.01,2013-03-10 10:35:00,
2013-03-10 06:40:00,61.7,53.3,30.04,East,100,0.0,1.0,74,0.00,,---,0.00,VWS V14.01,2013-03-10 10:40:00,
2013-03-10 06:45:00,62.1,53.7,30.04,East,92,0.0,1.0,74,0.00,,---,0.00,VWS V14.01,2013-03-10 10:45:00,
2013-03-10 06:50:00,62.9,54.1,30.04,ESE,119,1.0,3.0,73,0.00,,---,0.00,VWS V14.01,2013-03-10 10:50:00,
2013-03-10 06:55:00,63.6,54.4,30.05,ESE,111,0.0,3.0,72,0.00,,---,0.00,VWS V14.01,2013-03-10 10:55:00,
2013-03-10 07:00:00,64.2,54.6,30.05,ESE,111,1.0,2.0,71,0.00,,---,0.00,VWS V14.01,2013-03-10 11:00:00,
2013-03-10 07:05:00,64.6,54.6,30.05,East,90,0.0,2.0,70,0.00,,---,0.00,VWS V14.01,2013-03-10 11:05:00,
2013-03-10 07:10:00,64.9,54.5,30.05,East,83,1.0,3.0,69,0.00,,---,0.00,VWS V14.01,2013-03-10 11:10:00,
2013-03-10 07:15:00,65.2,54.4,30.05,ENE,77,1.0,3.0,68,0.00,,---,0.00,VWS V14.01,2013-03-10 11:15:00,
2013-03-10 07:20:00,65.4,53.8,30.06,ESE,103,0.0,3.0,66,0.00,,---,0.00,VWS V14.01,2013-03-10 11:20:00,
2013-03-10 07:25:00,65.6,54.0,30.05,ENE,59,0.0,4.0,66,0.00,,---,0.00,VWS V14.01,2013-03-10 11:25:00,
2013-03-10 07:30:00,65.6,53.1,30.05,East,94,2.0,2.0,64,0.00,,---,0.00,VWS V14.01,2013-03-10 11:30:00,
2013-03-10 07:35:00,65.8,53.3,30.06,ENE,67,0.0,5.0,64,0.00,,---,0.00,VWS V14.01,2013-03-10 11:35:00,
2013-03-10 07:40:00,65.8,53.3,30.06,NE,52,1.0,5.0,64,0.00,,---,0.00,VWS V14.01,2013-03-10 11:40:00,
2013-03-10 07:45:00,65.8,53.3,30.06,East,99,1.0,5.0,64,0.00,,---,0.00,VWS V14.01,2013-03-10 11:45:00,
2013-03-10 07:50:00,65.8,53.3,30.06,East,86,1.0,5.0,64,0.00,,---,0.00,VWS V14.01,2013-03-10 11:50:00,
2013-03-10 07:55:00,65.6,53.5,30.06,ESE,103,0.0,5.0,65,0.00,,---,0.00,VWS V14.01,2013-03-10 11:55:00,
2013-03-10 08:00:00,65.6,53.1,30.06,ENE,76,0.0,0.0,64,0.00,,---,0.00,VWS V14.01,2013-03-10 12:00:00,
2013-03-10 08:05:00,65.6,53.1,30.06,East,97,0.0,3.0,64,0.00,,---,0.00,VWS V14.01,2013-03-10 12:05:00,
2013-03-10 08:10:00,65.5,53.4,30.06,East,97,0.0,3.0,65,0.00,,---,0.00,VWS V14.01,2013-03-10 12:10:00,
2013-03-10 08:15:00,65.4,53.3,30.07,ENE,71,0.0,3.0,65,0.00,,---,0.00,VWS V14.01,2013-03-10 12:15:00,
2013-03-10 08:20:00,65.5,53.8,30.07,East,79,1.0,3.0,66,0.00,,---,0.00,VWS V14.01,2013-03-10 12:20:00,
2013-03-10 08:25:00,65.5,53.8,30.07,East,80,0.0,3.0,66,0.00,,---,0.00,VWS V14.01,2013-03-10 12:25:00,
2013-03-10 08:30:00,65.6,54.0,30.07,ESE,105,1.0,1.0,66,0.00,,---,0.00,VWS V14.01,2013-03-10 12:30:00,
2013-03-10 08:35:00,65.6,54.0,30.07,ESE,105,0.0,4.0,66,0.00,,---,0.00,VWS V14.01,2013-03-10 12:35:00,
2013-03-10 08:40:00,65.6,54.0,30.07,ESE,105,0.0,4.0,66,0.00,,---,0.00,VWS V14.01,2013-03-10 12:40:00,
2013-03-10 08:45:00,65.8,54.5,30.08,ENE,76,1.0,4.0,67,0.00,,---,0.00,VWS V14.01,2013-03-10 12:45:00,
2013-03-10 08:50:00,66.5,55.2,30.08,ENE,77,3.0,4.0,67,0.00,,---,0.00,VWS V14.01,2013-03-10 12:50:00,
2013-03-10 08:55:00,67.4,55.2,30.08,ENE,78,0.0,4.0,65,0.00,,---,0.00,VWS V14.01,2013-03-10 12:55:00,
2013-03-10 09:00:00,67.6,55.4,30.08,East,90,2.0,2.0,65,0.00,,---,0.00,VWS V14.01,2013-03-10 13:00:00,
2013-03-10 09:05:00,67.5,55.8,30.08,East,86,1.0,3.0,66,0.00,,---,0.00,VWS V14.01,2013-03-10 13:05:00,
2013-03-10 09:10:00,67.6,55.4,30.08,ESE,109,2.0,4.0,65,0.00,,---,0.00,VWS V14.01,2013-03-10 13:10:00,
2013-03-10 09:15:00,67.9,56.1,30.08,ENE,67,1.0,4.0,66,0.00,,---,0.00,VWS V14.01,2013-03-10 13:15:00,
2013-03-10 09:20:00,68.5,56.3,30.08,ESE,105,1.0,4.0,65,0.00,,---,0.00,VWS V14.01,2013-03-10 13:20:00,
2013-03-10 09:25:00,68.8,55.7,30.08,SE,127,4.0,4.0,63,0.00,,---,0.00,VWS V14.01,2013-03-10 13:25:00,
2013-03-10 09:30:00,68.6,55.5,30.08,ESE,103,1.0,1.0,63,0.00,,---,0.00,VWS V14.01,2013-03-10 13:30:00,
2013-03-10 09:35:00,68.6,55.5,30.08,ESE,118,2.0,4.0,63,0.00,,---,0.00,VWS V14.01,2013-03-10 13:35:00,
2013-03-10 09:40:00,69.3,56.2,30.08,East,94,1.0,4.0,63,0.00,,---,0.00,VWS V14.01,2013-03-10 13:40:00,
2013-03-10 09:45:00,70.3,55.3,30.08,ESE,120,0.0,9.0,59,0.00,,---,0.00,VWS V14.01,2013-03-10 13:45:00,
2013-03-10 09:50:00,70.5,56.4,30.08,ESE,120,5.0,9.0,61,0.00,,---,0.00,VWS V14.01,2013-03-10 13:50:00,
2013-03-10 09:55:00,70.6,57.0,30.08,East,79,1.0,9.0,62,0.00,,---,0.00,VWS V14.01,2013-03-10 13:55:00,
2013-03-10 10:00:00,71.3,57.2,30.08,ESE,119,5.0,7.0,61,0.00,,---,0.00,VWS V14.01,2013-03-10 14:00:00,
2013-03-10 10:05:00,71.7,57.1,30.08,ESE,119,1.0,7.0,60,0.00,,---,0.00,VWS V14.01,2013-03-10 14:05:00,
2013-03-10 10:10:00,71.5,56.9,30.09,SE,135,1.0,8.0,60,0.00,,---,0.00,VWS V14.01,2013-03-10 14:10:00,
2013-03-10 10:15:00,71.9,57.3,30.09,ENE,59,2.0,8.0,60,0.00,,---,0.00,VWS V14.01,2013-03-10 14:15:00,
2013-03-10 10:20:00,72.5,57.8,30.09,NE,49,3.0,8.0,60,0.00,,---,0.00,VWS V14.01,2013-03-10 14:20:00,
2013-03-10 10:25:00,72.9,57.8,30.09,East,99,1.0,8.0,59,0.00,,---,0.00,VWS V14.01,2013-03-10 14:25:00,
2013-03-10 10:30:00,73.1,57.5,30.09,ENE,68,7.0,7.0,58,0.00,,---,0.00,VWS V14.01,2013-03-10 14:30:00,
2013-03-10 10:35:00,72.3,55.7,30.09,East,87,7.0,8.0,56,0.00,,---,0.00,VWS V14.01,2013-03-10 14:35:00,
2013-03-10 10:40:00,71.5,56.4,30.09,NE,55,2.0,8.0,59,0.00,,---,0.00,VWS V14.01,2013-03-10 14:40:00,
2013-03-10 10:45:00,72.0,57.4,30.09,ESE,107,2.0,9.0,60,0.00,,---,0.00,VWS V14.01,2013-03-10 14:45:00,
2013-03-10 10:50:00,72.2,55.7,30.09,ENE,67,3.0,9.0,56,0.00,,---,0.00,VWS V14.01,2013-03-10 14:50:00,
2013-03-10 10:55:00,71.7,56.2,30.09,East,82,1.0,9.0,58,0.00,,---,0.00,VWS V14.01,2013-03-10 14:55:00,
2013-03-10 11:00:00,71.5,56.0,30.09,ESE,117,4.0,5.0,58,0.00,,---,0.00,VWS V14.01,2013-03-10 15:00:00,
2013-03-10 11:05:00,71.9,57.7,30.08,ENE,69,7.0,7.0,61,0.00,,---,0.00,VWS V14.01,2013-03-10 15:05:00,
2013-03-10 11:10:00,72.6,56.5,30.09,East,95,3.0,9.0,57,0.00,,---,0.00,VWS V14.01,2013-03-10 15:10:00,
2013-03-10 11:15:00,71.7,55.7,30.09,NE,44,5.0,12.0,57,0.00,,---,0.00,VWS V14.01,2013-03-10 15:15:00,
2013-03-10 11:20:00,72.3,55.2,30.09,ESE,102,4.0,13.0,55,0.00,,---,0.00,VWS V14.01,2013-03-10 15:20:00,
2013-03-10 11:25:00,72.8,56.2,30.08,ESE,117,5.0,13.0,56,0.00,,---,0.00,VWS V14.01,2013-03-10 15:25:00,
2013-03-10 11:30:00,73.2,56.1,30.09,ESE,116,5.0,7.0,55,0.00,,---,0.00,VWS V14.01,2013-03-10 15:30:00,
2013-03-10 11:35:00,73.9,57.2,30.09,East,83,1.0,10.0,56,0.00,,---,0.00,VWS V14.01,2013-03-10 15:35:00,
2013-03-10 11:40:00,73.9,56.2,30.09,SE,128,6.0,10.0,54,0.00,,---,0.00,VWS V14.01,2013-03-10 15:40:00,
2013-03-10 11:45:00,73.9,56.7,30.09,ESE,108,2.0,10.0,55,0.00,,---,0.00,VWS V14.01,2013-03-10 15:45:00,
2013-03-10 11:50:00,73.6,56.0,30.09,NE,34,2.0,10.0,54,0.00,,---,0.00,VWS V14.01,2013-03-10 15:50:00,
2013-03-10 11:55:00,73.2,56.1,30.09,ENE,66,2.0,10.0,55,0.00,,---,0.00,VWS V14.01,2013-03-10 15:55:00,
2013-03-10 12:00:00,73.4,55.8,30.09,East,87,7.0,10.0,54,0.00,,---,0.00,VWS V14.01,2013-03-10 16:00:00,
2013-03-10 12:05:00,73.1,55.0,30.09,ESE,108,5.0,9.0,53,0.00,,---,0.00,VWS V14.01,2013-03-10 16:05:00,
2013-03-10 12:10:00,73.0,55.9,30.09,NNE,32,2.0,9.0,55,0.00,,---,0.00,VWS V14.01,2013-03-10 16:10:00,
2013-03-10 12:15:00,72.7,56.1,30.09,ENE,72,4.0,9.0,56,0.00,,---,0.00,VWS V14.01,2013-03-10 16:15:00,
2013-03-10 12:20:00,73.1,57.0,30.09,NE,50,6.0,9.0,57,0.00,,---,0.00,VWS V14.01,2013-03-10 16:20:00,
2013-03-10 12:25:00,73.7,56.5,30.09,ENE,65,1.0,9.0,55,0.00,,---,0.00,VWS V14.01,2013-03-10 16:25:00,
2013-03-10 12:30:00,74.2,58.5,30.09,ESE,115,3.0,9.0,58,0.00,,---,0.00,VWS V14.01,2013-03-10 16:30:00,
2013-03-10 12:35:00,74.6,56.9,30.09,SE,144,7.0,8.0,54,0.00,,---,0.00,VWS V14.01,2013-03-10 16:35:00,
2013-03-10 12:40:00,74.8,57.6,30.09,NNE,27,6.0,8.0,55,0.00,,---,0.00,VWS V14.01,2013-03-10 16:40:00,
2013-03-10 12:45:00,74.5,56.3,30.08,East,92,3.0,9.0,53,0.00,,---,0.00,VWS V14.01,2013-03-10 16:45:00,
2013-03-10 12:50:00,74.3,57.1,30.08,ENE,60,1.0,12.0,55,0.00,,---,0.00,VWS V14.01,2013-03-10 16:50:00,
2013-03-10 12:55:00,74.2,56.5,30.08,SE,130,2.0,12.0,54,0.00,,---,0.00,VWS V14.01,2013-03-10 16:55:00,
2013-03-10 13:00:00,74.4,57.2,30.07,East,92,2.0,12.0,55,0.00,,---,0.00,VWS V14.01,2013-03-10 17:00:00,
2013-03-10 13:05:00,74.7,57.0,30.07,South,185,4.0,8.0,54,0.00,,---,0.00,VWS V14.01,2013-03-10 17:05:00,
2013-03-10 13:10:00,74.9,57.2,30.07,East,95,2.0,8.0,54,0.00,,---,0.00,VWS V14.01,2013-03-10 17:10:00,
2013-03-10 13:15:00,74.7,57.5,30.07,ENE,59,5.0,12.0,55,0.00,,---,0.00,VWS V14.01,2013-03-10 17:15:00,
2013-03-10 13:20:00,74.1,56.9,30.06,ENE,63,4.0,12.0,55,0.00,,---,0.00,VWS V14.01,2013-03-10 17:20:00,
2013-03-10 13:25:00,74.2,57.5,30.06,NE,56,5.0,12.0,56,0.00,,---,0.00,VWS V14.01,2013-03-10 17:25:00,
2013-03-10 13:30:00,74.2,57.0,30.06,ESE,119,4.0,4.0,55,0.00,,---,0.00,VWS V14.01,2013-03-10 17:30:00,
2013-03-10 13:35:00,74.3,57.1,30.06,ENE,57,3.0,8.0,55,0.00,,---,0.00,VWS V14.01,2013-03-10 17:35:00,
2013-03-10 13:40:00,74.5,57.8,30.05,ESE,123,5.0,10.0,56,0.00,,---,0.00,VWS V14.01,2013-03-10 17:40:00,
2013-03-10 13:45:00,73.9,57.2,30.05,ENE,66,4.0,10.0,56,0.00,,---,0.00,VWS V14.01,2013-03-10 17:45:00,
2013-03-10 13:50:00,74.1,58.4,30.04,East,88,2.0,10.0,58,0.00,,---,0.00,VWS V14.01,2013-03-10 17:50:00,
2013-03-10 13:55:00,74.0,57.3,30.05,ESE,118,2.0,10.0,56,0.00,,---,0.00,VWS V14.01,2013-03-10 17:55:00,
2013-03-10 14:00:00,74.2,57.5,30.04,NE,45,3.0,11.0,56,0.00,,---,0.00,VWS V14.01,2013-03-10 18:00:00,
2013-03-10 14:05:00,74.2,58.0,30.04,NE,46,4.0,12.0,57,0.00,,---,0.00,VWS V14.01,2013-03-10 18:05:00,
2013-03-10 14:10:00,74.2,57.5,30.04,ENE,65,2.0,12.0,56,0.00,,---,0.00,VWS V14.01,2013-03-10 18:10:00,
2013-03-10 14:15:00,74.2,58.0,30.04,SE,142,1.0,12.0,57,0.00,,---,0.00,VWS V14.01,2013-03-10 18:15:00,
2013-03-10 14:20:00,74.6,57.9,30.04,ENE,78,2.0,12.0,56,0.00,,---,0.00,VWS V14.01,2013-03-10 18:20:00,
2013-03-10 14:25:00,75.2,57.4,30.04,SSE,168,4.0,12.0,54,0.00,,---,0.00,VWS V14.01,2013-03-10 18:25:00,
2013-03-10 14:30:00,75.1,57.8,30.04,SE,135,1.0,12.0,55,0.00,,---,0.00,VWS V14.01,2013-03-10 18:30:00,
2013-03-10 14:35:00,74.8,59.0,30.04,NE,56,7.0,10.0,58,0.00,,---,0.00,VWS V14.01,2013-03-10 18:35:00,
2013-03-10 14:40:00,74.6,56.9,30.04,ESE,123,4.0,12.0,54,0.00,,---,0.00,VWS V14.01,2013-03-10 18:40:00,
2013-03-10 14:45:00,74.5,58.3,30.03,ENE,61,10.0,12.0,57,0.00,,---,0.00,VWS V14.01,2013-03-10 18:45:00,
2013-03-10 14:50:00,74.4,57.2,30.03,ENE,77,5.0,12.0,55,0.00,,---,0.00,VWS V14.01,2013-03-10 18:50:00,
2013-03-10 14:55:00,74.3,57.6,30.03,ESE,121,5.0,12.0,56,0.00,,---,0.00,VWS V14.01,2013-03-10 18:55:00,
2013-03-10 15:00:00,74.8,58.6,30.03,East,94,2.0,12.0,57,0.00,,---,0.00,VWS V14.01,2013-03-10 19:00:00,
2013-03-10 15:05:00,74.8,58.1,30.03,East,94,9.0,10.0,56,0.00,,---,0.00,VWS V14.01,2013-03-10 19:05:00,
2013-03-10 15:10:00,74.7,58.5,30.03,ENE,73,5.0,10.0,57,0.00,,---,0.00,VWS V14.01,2013-03-10 19:10:00,
2013-03-10 15:15:00,74.6,58.4,30.03,SE,140,6.0,10.0,57,0.00,,---,0.00,VWS V14.01,2013-03-10 19:15:00,
2013-03-10 15:20:00,74.3,57.1,30.03,East,90,3.0,10.0,55,0.00,,---,0.00,VWS V14.01,2013-03-10 19:20:00,
2013-03-10 15:25:00,74.4,58.7,30.03,ESE,120,4.0,12.0,58,0.00,,---,0.00,VWS V14.01,2013-03-10 19:25:00,
2013-03-10 15:30:00,74.8,57.6,30.03,East,82,6.0,12.0,55,0.00,,---,0.00,VWS V14.01,2013-03-10 19:30:00,
2013-03-10 15:35:00,74.7,58.0,30.03,SSW,196,3.0,9.0,56,0.00,,---,0.00,VWS V14.01,2013-03-10 19:35:00,
2013-03-10 15:40:00,74.2,57.5,30.03,ENE,70,5.0,9.0,56,0.00,,---,0.00,VWS V14.01,2013-03-10 19:40:00,
2013-03-10 15:45:00,73.5,56.4,30.03,SSE,154,6.0,9.0,55,0.00,,---,0.00,VWS V14.01,2013-03-10 19:45:00,
2013-03-10 15:50:00,73.0,56.4,30.02,SE,131,0.0,9.0,56,0.00,,---,0.00,VWS V14.01,2013-03-10 19:50:00,
2013-03-10 15:55:00,73.2,57.1,30.02,SE,125,4.0,9.0,57,0.00,,---,0.00,VWS V14.01,2013-03-10 19:55:00,
2013-03-10 16:00:00,73.7,56.5,30.02,SE,139,2.0,9.0,55,0.00,,---,0.00,VWS V14.01,2013-03-10 20:00:00,
2013-03-10 16:05:00,74.1,57.9,30.02,SSE,160,4.0,7.0,57,0.00,,---,0.00,VWS V14.01,2013-03-10 20:05:00,
2013-03-10 16:10:00,73.8,57.6,30.02,ENE,57,4.0,9.0,57,0.00,,---,0.00,VWS V14.01,2013-03-10 20:10:00,
2013-03-10 16:15:00,73.1,57.5,30.02,ENE,63,4.0,9.0,58,0.00,,---,0.00,VWS V14.01,2013-03-10 20:15:00,
2013-03-10 16:19:00,73.8,58.1,30.02,SE,139,5.0,9.0,58,0.00,,---,0.00,VWS V14.01,2013-03-10 20:19:00,
2013-03-10 16:24:00,74.5,57.8,30.02,East,80,3.0,9.0,56,0.00,,---,0.00,VWS V14.01,2013-03-10 20:24:00,
2013-03-10 16:29:00,74.6,58.4,30.02,East,96,2.0,9.0,57,0.00,,---,0.00,VWS V14.01,2013-03-10 20:29:00,
2013-03-10 16:30:00,74.6,58.4,30.02,East,96,1.0,9.0,57,0.00,,---,0.00,VWS V14.01,2013-03-10 20:30:00,
2013-03-10 16:34:00,75.0,58.8,30.02,ENE,57,1.0,8.0,57,0.00,,---,0.00,VWS V14.01,2013-03-10 20:34:00,
2013-03-10 16:39:00,75.0,59.2,30.02,ESE,121,5.0,8.0,58,0.00,,---,0.00,VWS V14.01,2013-03-10 20:39:00,
2013-03-10 16:44:00,74.8,58.1,30.02,SE,139,5.0,8.0,56,0.00,,---,0.00,VWS V14.01,2013-03-10 20:44:00,
2013-03-10 16:49:00,74.7,58.0,30.02,SE,142,3.0,8.0,56,0.00,,---,0.00,VWS V14.01,2013-03-10 20:49:00,
2013-03-10 16:54:00,73.9,58.2,30.02,ESE,109,4.0,8.0,58,0.00,,---,0.00,VWS V14.01,2013-03-10 20:54:00,
2013-03-10 16:59:00,73.2,57.5,30.02,ENE,78,4.0,8.0,58,0.00,,---,0.00,VWS V14.01,2013-03-10 20:59:00,
2013-03-10 17:00:00,73.2,57.5,30.02,ESE,113,5.0,8.0,58,0.00,,---,0.00,VWS V14.01,2013-03-10 21:00:00,
2013-03-10 17:04:00,73.2,58.5,30.02,East,79,2.0,7.0,60,0.00,,---,0.00,VWS V14.01,2013-03-10 21:04:00,
2013-03-10 17:09:00,73.3,58.1,30.02,ESE,104,3.0,10.0,59,0.00,,---,0.00,VWS V14.01,2013-03-10 21:09:00,
2013-03-10 17:14:00,73.2,58.0,30.02,ESE,109,2.0,10.0,59,0.00,,---,0.00,VWS V14.01,2013-03-10 21:14:00,
2013-03-10 17:19:00,73.1,58.4,30.02,ESE,110,7.0,10.0,60,0.00,,---,0.00,VWS V14.01,2013-03-10 21:19:00,
2013-03-10 17:24:00,72.8,58.1,30.02,East,90,5.0,10.0,60,0.00,,---,0.00,VWS V14.01,2013-03-10 21:24:00,
2013-03-10 17:29:00,72.9,59.1,30.02,East,80,2.0,10.0,62,0.00,,---,0.00,VWS V14.01,2013-03-10 21:29:00,
2013-03-10 17:30:00,72.9,59.1,30.02,ENE,76,2.0,10.0,62,0.00,,---,0.00,VWS V14.01,2013-03-10 21:30:00,
2013-03-10 17:34:00,72.7,58.5,30.02,East,88,0.0,7.0,61,0.00,,---,0.00,VWS V14.01,2013-03-10 21:34:00,
2013-03-10 17:39:00,72.3,58.6,30.02,NE,54,4.0,7.0,62,0.00,,---,0.00,VWS V14.01,2013-03-10 21:39:00,
2013-03-10 17:44:00,71.9,58.2,30.02,ENE,57,5.0,9.0,62,0.00,,---,0.00,VWS V14.01,2013-03-10 21:44:00,
2013-03-10 17:49:00,71.8,58.5,30.02,SE,126,1.0,9.0,63,0.00,,---,0.00,VWS V14.01,2013-03-10 21:49:00,
2013-03-10 17:54:00,71.7,58.5,30.02,ESE,118,2.0,9.0,63,0.00,,---,0.00,VWS V14.01,2013-03-10 21:54:00,
2013-03-10 17:59:00,71.6,58.3,30.02,ESE,111,4.0,9.0,63,0.00,,---,0.00,VWS V14.01,2013-03-10 21:59:00,
2013-03-10 18:00:00,71.6,58.3,30.02,East,89,5.0,9.0,63,0.00,,---,0.00,VWS V14.01,2013-03-10 22:00:00,
2013-03-10 18:04:00,71.6,58.3,30.02,East,90,1.0,10.0,63,0.00,,---,0.00,VWS V14.01,2013-03-10 22:04:00,
2013-03-10 18:09:00,71.9,59.1,30.02,East,90,3.0,10.0,64,0.00,,---,0.00,VWS V14.01,2013-03-10 22:09:00,
2013-03-10 18:14:00,71.9,58.2,30.02,ESE,109,1.0,10.0,62,0.00,,---,0.00,VWS V14.01,2013-03-10 22:14:00,
2013-03-10 18:19:00,71.9,58.2,30.02,ESE,104,3.0,10.0,62,0.00,,---,0.00,VWS V14.01,2013-03-10 22:19:00,
2013-03-10 18:24:00,71.4,58.2,30.02,ESE,107,2.0,10.0,63,0.00,,---,0.00,VWS V14.01,2013-03-10 22:24:00,
2013-03-10 18:29:00,71.0,58.2,30.02,ESE,113,2.0,10.0,64,0.00,,---,0.00,VWS V14.01,2013-03-10 22:29:00,
2013-03-10 18:30:00,71.0,58.2,30.02,ESE,123,4.0,10.0,64,0.00,,---,0.00,VWS V14.01,2013-03-10 22:30:00,
2013-03-10 18:34:00,70.8,58.5,30.02,ESE,119,5.0,7.0,65,0.00,,---,0.00,VWS V14.01,2013-03-10 22:34:00,
2013-03-10 18:39:00,70.6,58.3,30.02,ESE,115,2.0,9.0,65,0.00,,---,0.00,VWS V14.01,2013-03-10 22:39:00,
2013-03-10 18:44:00,70.6,58.7,30.02,East,98,2.0,10.0,66,0.00,,---,0.00,VWS V14.01,2013-03-10 22:44:00,
2013-03-10 18:49:00,70.6,58.7,30.02,NE,46,4.0,10.0,66,0.00,,---,0.00,VWS V14.01,2013-03-10 22:49:00,
2013-03-10 18:54:00,70.4,58.5,30.02,East,80,2.0,10.0,66,0.00,,---,0.00,VWS V14.01,2013-03-10 22:54:00,
2013-03-10 18:59:00,70.4,58.5,30.03,ESE,121,4.0,10.0,66,0.00,,---,0.00,VWS V14.01,2013-03-10 22:59:00,
2013-03-10 19:00:00,70.3,58.4,30.03,East,80,3.0,10.0,66,0.00,,---,0.00,VWS V14.01,2013-03-10 23:00:00,
2013-03-10 19:04:00,70.2,58.3,30.03,ENE,70,3.0,6.0,66,0.00,,---,0.00,VWS V14.01,2013-03-10 23:04:00,
2013-03-10 19:09:00,70.1,58.7,30.03,ENE,63,0.0,6.0,67,0.00,,---,0.00,VWS V14.01,2013-03-10 23:09:00,
2013-03-10 19:14:00,69.8,58.8,30.03,ESE,119,4.0,7.0,68,0.00,,---,0.00,VWS V14.01,2013-03-10 23:14:00,
2013-03-10 19:19:00,69.7,58.7,30.03,ESE,117,0.0,7.0,68,0.00,,---,0.00,VWS V14.01,2013-03-10 23:19:00,
2013-03-10 19:24:00,69.4,58.4,30.03,ESE,111,2.0,7.0,68,0.00,,---,0.00,VWS V14.01,2013-03-10 23:24:00,
2013-03-10 19:29:00,69.2,58.6,30.03,ESE,103,2.0,9.0,69,0.00,,---,0.00,VWS V14.01,2013-03-10 23:29:00,
2013-03-10 19:30:00,69.2,58.6,30.03,East,96,2.0,9.0,69,0.00,,---,0.00,VWS V14.01,2013-03-10 23:30:00,
2013-03-10 19:34:00,69.1,58.5,30.03,East,101,1.0,3.0,69,0.00,,---,0.00,VWS V14.01,2013-03-10 23:34:00,
2013-03-10 19:39:00,69.0,58.4,30.03,NE,54,2.0,7.0,69,0.00,,---,0.00,VWS V14.01,2013-03-10 23:39:00,
2013-03-10 19:44:00,68.9,58.7,30.03,NE,46,3.0,7.0,70,0.00,,---,0.00,VWS V14.01,2013-03-10 23:44:00,
2013-03-10 19:49:00,68.9,58.7,30.03,East,87,5.0,7.0,70,0.00,,---,0.00,VWS V14.01,2013-03-10 23:49:00,
2013-03-10 19:54:00,69.0,58.8,30.03,ENE,65,1.0,7.0,70,0.00,,---,0.00,VWS V14.01,2013-03-10 23:54:00,
2013-03-10 19:59:00,69.0,58.8,30.03,ESE,111,2.0,7.0,70,0.00,,---,0.00,VWS V14.01,2013-03-10 23:59:00,
2013-03-10 20:00:00,69.0,58.8,30.03,ESE,118,2.0,7.0,70,0.00,,---,0.00,VWS V14.01,2013-03-11 00:00:00,
2013-03-10 20:04:00,69.1,58.9,30.03,ENE,78,2.0,6.0,70,0.00,,---,0.00,VWS V14.01,2013-03-11 00:04:00,
2013-03-10 20:09:00,69.1,58.9,30.03,ESE,111,0.0,7.0,70,0.00,,---,0.00,VWS V14.01,2013-03-11 00:09:00,
2013-03-10 20:14:00,69.0,58.8,30.03,East,82,1.0,7.0,70,0.00,,---,0.00,VWS V14.01,2013-03-11 00:14:00,
2013-03-10 20:19:00,68.9,58.7,30.03,NE,56,2.0,7.0,70,0.00,,---,0.00,VWS V14.01,2013-03-11 00:19:00,
2013-03-10 20:24:00,68.9,58.7,30.03,ESE,111,0.0,8.0,70,0.00,,---,0.00,VWS V14.01,2013-03-11 00:24:00,
2013-03-10 20:29:00,68.9,59.1,30.03,ESE,111,1.0,8.0,71,0.00,,---,0.00,VWS V14.01,2013-03-11 00:29:00,
2013-03-10 20:30:00,68.9,59.1,30.03,ESE,111,2.0,8.0,71,0.00,,---,0.00,VWS V14.01,2013-03-11 00:30:00,
2013-03-10 20:34:00,68.9,59.1,30.03,East,81,2.0,7.0,71,0.00,,---,0.00,VWS V14.01,2013-03-11 00:34:00,
2013-03-10 20:39:00,69.0,58.8,30.03,East,94,1.0,7.0,70,0.00,,---,0.00,VWS V14.01,2013-03-11 00:39:00,
2013-03-10 20:44:00,68.9,58.7,30.03,East,90,0.0,8.0,70,0.00,,---,0.00,VWS V14.01,2013-03-11 00:44:00,
2013-03-10 20:49:00,68.8,59.0,30.03,NE,46,0.0,8.0,71,0.00,,---,0.00,VWS V14.01,2013-03-11 00:49:00,
2013-03-10 20:54:00,68.8,59.0,30.03,ESE,117,2.0,8.0,71,0.00,,---,0.00,VWS V14.01,2013-03-11 00:54:00,
2013-03-10 20:59:00,68.7,58.9,30.04,ENE,67,2.0,8.0,71,0.00,,---,0.00,VWS V14.01,2013-03-11 00:59:00,
2013-03-10 21:00:00,68.7,58.9,30.04,ESE,109,1.0,8.0,71,0.00,,---,0.00,VWS V14.01,2013-03-11 01:00:00,
2013-03-10 21:04:00,68.6,58.8,30.04,ENE,63,1.0,3.0,71,0.00,,---,0.00,VWS V14.01,2013-03-11 01:04:00,
2013-03-10 21:09:00,68.5,58.7,30.04,ENE,68,2.0,5.0,71,0.00,,---,0.00,VWS V14.01,2013-03-11 01:09:00,
2013-03-10 21:14:00,68.4,59.0,30.04,East,101,1.0,5.0,72,0.00,,---,0.00,VWS V14.01,2013-03-11 01:14:00,
2013-03-10 21:19:00,68.4,59.0,30.04,ENE,76,2.0,5.0,72,0.00,,---,0.00,VWS V14.01,2013-03-11 01:19:00,
2013-03-10 21:24:00,68.3,58.9,30.05,ENE,71,2.0,5.0,72,0.00,,---,0.00,VWS V14.01,2013-03-11 01:24:00,
2013-03-10 21:29:00,68.3,58.9,30.05,ESE,118,3.0,5.0,72,0.00,,---,0.00,VWS V14.01,2013-03-11 01:29:00,
2013-03-10 21:30:00,68.3,58.9,30.05,East,96,1.0,5.0,72,0.00,,---,0.00,VWS V14.01,2013-03-11 01:30:00,
2013-03-10 21:34:00,68.4,59.0,30.05,ESE,107,5.0,6.0,72,0.00,,---,0.00,VWS V14.01,2013-03-11 01:34:00,
2013-03-10 21:39:00,68.6,59.2,30.05,ENE,71,0.0,6.0,72,0.00,,---,0.00,VWS V14.01,2013-03-11 01:39:00,
2013-03-10 21:44:00,68.5,59.1,30.05,ESE,123,3.0,6.0,72,0.00,,---,0.00,VWS V14.01,2013-03-11 01:44:00,
2013-03-10 21:49:00,68.5,59.5,30.05,East,87,0.0,6.0,73,0.00,,---,0.00,VWS V14.01,2013-03-11 01:49:00,
2013-03-10 21:54:00,68.4,59.4,30.05,East,84,1.0,6.0,73,0.00,,---,0.00,VWS V14.01,2013-03-11 01:54:00,
2013-03-10 21:59:00,68.4,59.4,30.05,ENE,67,1.0,6.0,73,0.00,,---,0.00,VWS V14.01,2013-03-11 01:59:00,
2013-03-10 22:00:00,68.5,59.5,30.05,ENE,70,0.0,6.0,73,0.00,,---,0.00,VWS V14.01,2013-03-11 02:00:00,
2013-03-10 22:04:00,68.5,59.5,30.05,ESE,122,3.0,7.0,73,0.00,,---,0.00,VWS V14.01,2013-03-11 02:04:00,
2013-03-10 22:09:00,68.6,59.6,30.05,ENE,76,0.0,7.0,73,0.00,,---,0.00,VWS V14.01,2013-03-11 02:09:00,
2013-03-10 22:14:00,68.6,59.6,30.06,SE,124,3.0,9.0,73,0.00,,---,0.00,VWS V14.01,2013-03-11 02:14:00,
2013-03-10 22:19:00,68.7,59.7,30.06,SE,125,4.0,9.0,73,0.00,,---,0.00,VWS V14.01,2013-03-11 02:19:00,
2013-03-10 22:24:00,68.8,59.8,30.06,ESE,119,5.0,9.0,73,0.00,,---,0.00,VWS V14.01,2013-03-11 02:24:00,
2013-03-10 22:29:00,68.7,59.7,30.06,ESE,116,0.0,9.0,73,0.00,,---,0.00,VWS V14.01,2013-03-11 02:29:00,
2013-03-10 22:30:00,68.7,59.7,30.06,ESE,116,0.0,9.0,73,0.00,,---,0.00,VWS V14.01,2013-03-11 02:30:00,
2013-03-10 22:34:00,68.6,60.0,30.06,East,86,2.0,4.0,74,0.00,,---,0.00,VWS V14.01,2013-03-11 02:34:00,
2013-03-10 22:39:00,68.6,60.0,30.06,ENE,59,2.0,4.0,74,0.00,,---,0.00,VWS V14.01,2013-03-11 02:39:00,
2013-03-10 22:44:00,68.6,60.0,30.06,East,92,3.0,7.0,74,0.00,,---,0.00,VWS V14.01,2013-03-11 02:44:00,
2013-03-10 22:49:00,68.7,60.1,30.06,East,88,1.0,7.0,74,0.00,,---,0.00,VWS V14.01,2013-03-11 02:49:00,
2013-03-10 22:54:00,68.8,60.2,30.06,ENE,63,0.0,7.0,74,0.00,,---,0.00,VWS V14.01,2013-03-11 02:54:00,
2013-03-10 22:59:00,68.8,60.2,30.06,SE,128,3.0,7.0,74,0.00,,---,0.00,VWS V14.01,2013-03-11 02:59:00,
2013-03-10 23:00:00,68.8,60.2,30.06,SE,136,2.0,7.0,74,0.00,,---,0.00,VWS V14.01,2013-03-11 03:00:00,
2013-03-10 23:04:00,68.8,60.6,30.06,East,79,7.0,8.0,75,0.00,,---,0.00,VWS V14.01,2013-03-11 03:04:00,
2013-03-10 23:09:00,68.7,60.5,30.07,SE,141,8.0,8.0,75,0.00,,---,0.00,VWS V14.01,2013-03-11 03:09:00,
2013-03-10 23:14:00,68.8,60.6,30.07,SE,141,2.0,8.0,75,0.00,,---,0.00,VWS V14.01,2013-03-11 03:14:00,
2013-03-10 23:19:00,68.7,60.1,30.07,ENE,69,3.0,8.0,74,0.00,,---,0.00,VWS V14.01,2013-03-11 03:19:00,
2013-03-10 23:24:00,68.6,60.0,30.07,ENE,62,2.0,8.0,74,0.00,,---,0.00,VWS V14.01,2013-03-11 03:24:00,
2013-03-10 23:29:00,68.6,60.0,30.07,ESE,117,3.0,8.0,74,0.00,,---,0.00,VWS V14.01,2013-03-11 03:29:00,
2013-03-10 23:30:00,68.6,60.0,30.07,SE,128,3.0,8.0,74,0.00,,---,0.00,VWS V14.01,2013-03-11 03:30:00,
2013-03-10 23:34:00,68.5,59.9,30.06,ESE,115,2.0,6.0,74,0.00,,---,0.00,VWS V14.01,2013-03-11 03:34:00,
2013-03-10 23:39:00,68.5,59.9,30.06,ESE,108,4.0,6.0,74,0.00,,---,0.00,VWS V14.01,2013-03-11 03:39:00,
2013-03-10 23:44:00,68.4,59.8,30.06,East,98,2.0,7.0,74,0.00,,---,0.00,VWS V14.01,2013-03-11 03:44:00,
2013-03-10 23:49:00,68.4,59.8,30.06,ENE,61,2.0,7.0,74,0.00,,---,0.00,VWS V14.01,2013-03-11 03:49:00,
2013-03-10 23:54:00,68.4,59.8,30.06,SE,140,3.0,8.0,74,0.00,,---,0.00,VWS V14.01,2013-03-11 03:54:00,
2013-03-10 23:59:00,68.4,59.8,30.06,ESE,110,3.0,8.0,74,0.00,,---,0.00,VWS V14.01,2013-03-11 03:59:00,